Showing default

TELSTAR 11N, 34111

Orbit data source: Space-Track

TELSTAR 11N, 34111 is a payload satellite owned by Telesat/Skynet (CA) in GEO that was launched on Thu, 26 Feb 2009 UTC via a ZENIT-3SLB launch vehicle from the Tyuratam Missile And Space Complex (TTMTR). Payload-class satellites include a variety of spacecraft equipped with specific instruments for various scientific and technological missions. These include communications satellites like Starlink; space stations such as the ISS; scientific satellites like the Hubble; Earth observation satellites from companies like Planet Labs, Umbra, and HawkEye 360; GPS; miniature CubeSats for education and research; and military/defense satellites.

Not visible in the next 10 days
Identifier
34111, 2009-009A
Orbit
GEO
Country
Flag of CACA
Related business
Manufacturer
SS/Loral
Mission
Operational Commercial Communications
Bus & Motor
FS-1300, R-4D-11-164
Mass
4,010 kg wet, ~2,000 kg dry
Launch date (UTC)
2009-02-26 (17 years ago)
Launch vehicle
ZENIT-3SLB
Launch site
Tyuratam Missile And Space Complex (TTMTR)
Object type
Payload
Rocket body
Debris
Shape & HBR
Box + 2 Pan, 15.5 m
Radar Cross Section
40.765 m², Large (>1 m²)

Expand to show TLE details & history
Last TLE update: 1 day ago

TLE from 1 day ago
0 TELSTAR 11N
1 34111U 09009A   25307.38676970  .00000000  00000-0  00000-0 0  9991
2 34111   0.0198 265.2812 0002610 309.2781 290.0193  1.00273213 43982
Epoch: 2025-11-03T09:16Z
TLE epoch observation values (Epoch: 2025-11-03T09:16:56.902Z)
Latitude
-0.03915°
Longitude
-37.61547°
Altitude
35,781.921 km
Speed
3.075 km/s
True Right ascension
09h 38m 02s
True Declination
0° 02' 21"
Sunlit
Object was in daylight at epoch
Visualization orbit readout
Latitude
Unknown
Longitude
Unknown
Altitude
Unknown
Speed
Unknown
Apparent Right ascension
Unknown
Apparent Declination
Unknown
Sunlit
N/A
Visualization observer readout
Local Sidereal Time
08:18:02
Azimuth
Unknown
Elevation
Unknown
Doppler factor
Unknown
Orbital elements
Apogee altitude
35,798.27 km
Perigee altitude
35,776.26 km
Semi-major axis
42,165.402 km
Eccentricity
0.00026
Inclination
0.0198°
RAAN
265.2812°
Arg. of periapsis
309.2781°
True anomaly
289.9912°
Mean anomaly
290.0193°
Eccentric anomaly
290.00525°
Mean motion
0.25067 °/min
Orbital period
1,436.13 mins
BSTAR
0
Loading maneuver chart data...
Computing Atmospheric mass density...
Loading historical data...
Loading historical data...
Loading historical data...
Loading historical data...
Loading historical data...
Loading historical data...
Loading historical data...
Other satellites on launch #9 in the year 2009 (2009-02-26 UTC)

Documentation

Showing up to 5 results
|